Wind_Speed
58 58 59 60 61 62 63 64 63 63 61 61 61 62 62 63 64 66 67 69 71 72 73 75 77 79 82 86 89 92 93 94 93 93 93 93 90 85 83 84 85 86 88 90 92 95 97 101 104 108 112 114 113 112 106 96 85 76 69 67 67 67 70 72 72 66 59 58 63 69 73 77 81 82 82 84 88 92 94 94 98 106 112 113 109
60 60 60 61 62 63 63 63 62 61 61 61 62 62 63 65 66 67 68 70 72 73 74 76 78 81 84 88 90 92 93 93 93 93 93 91 87 83 83 84 85 86 89 91 93 97 100 103 106 109 112 114 111 106 94 81 74 70 67 67 68 68 69 71 71 65 56 53 57 63 66 69 73 74 75 78 82 87 91 93 97 104 111 113 110
61 62 62 62 62 62 62 61 60 61 61 62 62 63 65 66 67 68 70 71 73 74 76 77 80 83 86 89 91 93 93 92 92 93 92 88 84 82 83 84 85 86 89 91 95 99 102 103 106 110 112 111 105 95 82 71 69 69 68 69 70 69 69 69 69 65 57 51 52 57 60 60 64 66 67 72 78 82 87 91 96 103 109 112 111
62 62 62 62 62 62 61 61 61 61 62 62 63 65 66 67 68 69 71 72 74 75 77 79 81 84 87 90 92 92 92 91 92 92 90 86 83 82 82 83 85 86 89 92 96 99 101 103 107 110 110 106 96 82 71 67 68 70 70 69 69 67 66 66 65 63 57 50 49 52 54 54 57 61 63 69 75 79 85 90 96 103 108 111 112
62 62 62 63 62 62 61 61 61 61 62 63 64 65 66 67 69 70 72 73 75 76 78 80 83 86 89 91 92 91 91 92 92 91 88 84 82 82 82 83 84 86 89 93 96 100 102 105 108 110 107 99 86 71 64 64 67 68 68 66 64 63 62 61 60 58 54 49 47 49 51 53 55 58 62 68 73 78 84 90 97 104 107 109 111
62 62 63 63 63 62 60 60 60 61 62 63 64 65 66 68 70 71 73 74 75 77 79 82 85 88 90 91 90 91 92 92 91 89 85 83 82 82 82 83 84 86 89 93 98 102 104 107 108 106 101 91 75 62 60 62 63 63 62 59 57 56 55 54 53 52 51 48 48 50 51 53 55 58 62 67 72 77 82 88 97 104 106 108 109
61 62 62 62 61 60 59 59 61 62 63 64 65 65 66 68 71 72 74 75 76 78 81 84 87 88 89 90 90 91 92 91 89 87 84 83 83 82 82 83 84 87 90 94 100 103 105 107 105 100 93 82 66 57 57 58 58 57 55 52 49 48 47 46 45 46 49 48 49 50 52 53 54 56 60 65 71 76 79 86 96 103 105 106 106
60 61 61 60 60 59 60 61 63 64 64 65 65 66 67 69 71 73 74 75 77 80 83 85 87 88 88 89 91 91 91 89 87 85 84 84 83 83 83 83 85 87 91 96 101 105 106 105 99 91 84 72 58 54 54 53 51 50 48 45 42 40 39 38 39 42 47 48 48 50 53 55 54 55 59 65 70 73 77 85 94 101 104 104 103
60 60 60 59 59 60 62 63 64 65 65 65 65 66 68 70 72 74 75 76 79 81 84 86 87 87 88 89 90 90 89 87 85 84 84 85 84 84 84 85 87 89 93 97 102 106 106 101 90 80 74 64 55 52 51 48 45 43 42 40 37 35 33 32 35 40 46 47 47 49 53 54 53 55 60 65 68 71 75 84 93 99 102 101 100
60 60 60 61 62 63 64 65 65 66 66 66 66 67 69 71 73 75 76 78 81 83 84 85 86 86 87 88 89 88 87 85 85 85 86 86 86 85 85 86 89 92 95 99 103 106 103 94 81 71 64 58 53 50 47 45 41 38 38 37 34 32 30 29 32 39 45 47 47 49 52 53 53 54 58 62 65 68 74 83 92 97 99 99 97
60 61 61 63 66 65 65 66 66 66 66 66 66 68 70 73 75 77 78 80 81 83 84 84 85 85 86 87 87 86 85 85 85 85 86 86 86 86 85 87 90 93 97 100 103 104 96 81 71 64 57 53 51 48 46 44 40 37 36 35 33 32 30 29 32 38 44 47 47 47 49 50 51 52 55 58 62 66 71 81 89 95 98 98 95
61 63 64 66 66 66 65 66 66 66 66 66 68 69 72 75 77 78 79 80 81 82 83 84 84 84 85 85 85 85 84 85 85 86 86 86 86 86 86 88 91 94 98 101 103 100 85 69 62 58 52 49 48 47 45 44 42 39 36 35 34 34 32 31 33 37 42 46 48 47 46 48 49 50 52 56 59 64 70 78 87 94 96 96 95
64 66 66 66 65 64 65 65 66 66 67 67 68 71 73 76 77 78 79 80 81 81 83 84 84 83 84 84 84 84 85 85 86 86 86 86 86 86 87 90 93 96 99 101 102 93 75 59 55 53 49 46 46 45 45 44 44 43 41 39 37 37 37 37 36 37 40 44 47 48 47 47 47 48 51 54 58 62 68 77 86 94 96 94 93
66 67 65 63 62 62 64 65 66 66 67 68 69 71 74 75 76 78 79 79 80 81 83 83 83 82 83 83 83 84 85 85 86 86 85 85 85 86 88 91 94 97 99 101 97 84 65 54 51 49 47 46 46 45 44 45 45 46 46 45 43 41 41 42 42 42 42 43 45 48 49 49 48 48 49 53 58 61 67 77 87 95 95 92 91
66 64 61 60 60 62 63 65 66 66 67 68 70 71 73 74 75 77 78 78 80 81 82 82 81 82 82 82 83 84 85 85 86 86 85 85 85 87 89 92 94 97 98 98 90 74 60 53 49 47 46 45 46 46 46 46 46 47 48 49 49 48 47 47 46 47 47 46 47 49 52 52 51 50 50 53 58 62 68 80 90 95 94 90 89
61 58 57 58 60 62 63 65 66 66 67 68 70 72 73 73 75 76 76 77 79 81 81 81 80 81 82 82 82 83 84 85 85 85 85 85 86 88 90 92 94 95 96 92 80 65 57 53 49 47 46 45 46 47 48 49 49 49 50 51 53 54 54 54 52 51 51 50 50 51 53 53 53 52 52 55 60 64 71 85 94 96 93 90 89
55 55 56 59 61 63 64 65 66 67 68 69 70 72 72 73 73 74 75 77 79 80 80 80 80 81 81 82 82 82 83 84 84 85 85 85 87 89 91 93 94 94 93 86 71 58 56 54 50 47 47 47 48 49 51 52 51 51 51 53 54 54 55 58 58 56 54 54 54 55 55 54 54 54 55 58 62 67 76 90 98 96 92 91 92
54 56 58 60 63 64 65 66 66 67 68 69 70 71 71 72 72 73 74 76 78 78 78 78 79 80 81 81 82 82 82 83 83 83 84 86 88 90 91 92 94 93 89 79 63 53 54 54 51 48 49 50 50 51 53 54 53 52 53 54 53 50 51 55 59 59 58 58 58 58 57 56 56 57 58 61 66 70 81 96 101 97 92 91 93
58 59 61 63 65 66 66 66 66 66 67 68 69 70 70 71 71 71 73 74 76 76 77 77 78 79 80 81 82 81 81 81 81 82 83 86 89 90 91 93 93 92 85 72 57 51 52 52 51 51 51 51 51 52 53 54 55 54 53 51 46 44 46 50 55 58 60 61 62 61 60 58 58 59 60 63 68 75 88 101 106 98 86 84 90
61 62 63 65 66 67 67 66 66 65 66 67 68 69 69 70 70 70 71 73 75 75 75 76 77 78 79 80 80 80 79 79 79 80 82 85 88 90 92 93 93 90 80 65 54 49 48 49 50 51 51 52 52 53 53 54 55 53 48 43 38 37 41 45 49 54 59 63 64 63 61 59 60 60 60 63 68 79 94 106 111 103 85 78 89
62 63 64 65 66 67 67 65 64 64 65 66 67 67 68 68 68 69 71 73 74 74 74 75 76 77 78 79 79 78 77 77 77 78 81 84 87 89 91 90 90 87 75 60 52 50 47 47 48 49 50 51 52 53 53 53 52 46 39 35 34 35 39 43 45 49 57 64 66 65 62 61 62 62 61 63 69 83 97 108 114 106 86 78 88
63 64 66 67 68 68 66 63 63 63 64 65 65 66 66 66 67 68 70 71 72 72 73 74 75 76 77 77 77 76 75 75 74 76 79 82 85 88 88 86 84 81 70 56 51 51 48 46 46 47 49 51 52 53 52 49 44 37 31 31 33 36 40 43 44 46 53 62 68 67 65 64 65 65 63 64 71 85 99 107 109 100 85 80 89
66 67 68 69 69 67 64 61 61 62 63 63 63 64 64 65 66 67 69 70 70 71 72 72 73 74 74 75 74 73 73 73 73 76 78 81 84 85 83 81 78 74 65 55 51 51 48 45 45 46 49 51 51 50 47 41 34 29 27 29 32 35 39 42 44 45 50 60 67 68 65 65 67 68 66 67 73 85 98 105 103 94 82 79 89
67 69 69 69 68 64 61 60 60 61 61 61 61 62 63 64 65 67 68 68 69 70 70 71 72 72 72 72 72 71 70 71 73 76 78 81 83 83 80 77 72 65 60 54 51 49 46 43 43 46 47 49 49 45 38 30 26 24 25 27 29 31 34 38 43 45 49 56 63 65 65 66 68 69 69 69 73 83 99 106 100 90 78 74 87
67 70 71 68 64 61 59 59 59 59 59 59 59 60 61 63 65 66 66 67 68 68 69 69 70 70 70 70 69 68 69 70 72 75 78 81 83 81 78 73 65 58 56 54 50 47 45 42 42 44 46 46 43 36 28 23 22 22 23 24 25 25 26 32 41 46 47 53 60 64 64 66 69 69 70 71 73 85 103 107 98 87 76 72 86
69 72 70 65 62 60 58 57 57 57 57 57 58 59 61 62 64 65 66 66 66 66 66 67 67 68 68 68 68 67 67 70 72 75 78 81 82 80 76 69 59 52 52 52 48 45 43 41 41 43 44 41 35 27 21 20 19 19 20 19 19 19 19 24 35 45 48 51 58 64 65 67 70 70 70 73 76 89 105 106 93 83 74 71 84
71 72 68 64 62 59 57 56 56 55 55 55 57 58 60 62 63 64 64 63 62 63 64 64 65 65 66 66 66 66 67 70 73 76 79 81 82 80 76 66 54 47 48 49 46 42 40 40 40 41 40 36 28 21 18 18 18 17 17 16 15 16 17 18 26 39 48 53 58 64 66 68 70 70 71 75 79 91 105 103 87 77 72 71 82
72 70 66 64 61 58 56 56 54 53 53 54 57 59 61 62 62 62 61 60 59 60 61 62 62 63 64 65 65 65 67 70 73 77 80 82 82 80 73 62 50 44 44 46 44 41 38 37 37 38 36 31 24 19 17 18 16 15 14 13 12 14 17 18 21 29 41 52 59 63 66 68 69 69 71 76 80 92 104 98 82 74 74 76 84
71 68 66 63 59 57 56 55 52 51 52 54 57 59 60 60 60 60 58 56 56 57 58 59 60 61 62 64 65 65 67 70 74 77 81 82 81 77 69 58 47 42 41 43 43 41 37 35 34 34 32 28 22 18 18 17 15 13 13 12 12 14 17 20 22 24 32 44 56 62 65 67 67 67 72 78 83 94 103 96 80 75 76 79 86
69 67 65 61 58 57 56 53 51 51 52 55 57 58 58 58 58 56 54 53 53 54 55 57 59 60 61 63 65 66 68 72 75 78 80 80 78 72 63 53 45 42 40 39 39 39 37 35 33 31 28 25 21 19 18 16 14 13 13 14 14 15 17 20 23 24 27 35 47 58 63 65 66 68 74 81 86 96 104 95 79 73 75 79 86
67 66 63 60 58 56 53 51 50 52 53 55 56 56 56 55 53 50 49 49 51 52 54 56 58 59 60 62 65 67 71 74 76 78 79 78 75 68 58 47 42 42 41 35 32 32 34 34 31 28 26 22 19 18 17 16 14 13 14 15 16 17 18 20 22 24 26 30 39 51 59 63 64 68 76 83 90 98 103 95 78 71 75 82 87
67 65 62 59 56 54 51 50 51 52 53 54 55 54 53 52 49 47 46 46 48 50 52 54 56 57 60 62 65 68 71 74 77 79 79 76 72 65 55 44 41 42 41 34 29 28 30 31 29 27 24 20 17 16 15 14 13 14 15 17 19 20 21 23 24 26 28 30 36 44 53 59 62 67 76 86 94 100 102 93 77 71 76 84 90
67 64 61 58 55 52 50 51 51 52 53 53 53 52 50 49 47 46 46 46 46 47 49 51 53 56 59 62 66 69 72 75 77 78 78 74 68 61 52 44 41 40 39 36 33 30 29 29 28 26 23 19 16 14 13 13 13 14 15 18 21 23 24 26 28 29 31 33 36 42 49 53 58 67 79 90 98 102 99 88 75 71 77 86 91
65 62 58 56 53 51 50 50 51 52 52 52 51 49 47 45 44 44 44 45 46 47 48 50 52 55 59 63 67 70 73 76 77 78 76 71 64 56 49 44 41 40 40 41 41 37 31 28 28 25 22 19 16 13 13 12 13 15 16 18 21 23 24 26 28 31 34 36 38 42 47 50 57 69 82 94 101 101 94 83 73 71 78 86 91
63 59 56 54 52 50 49 50 50 51 52 50 48 45 43 42 42 41 41 42 44 46 48 50 52 56 60 65 68 71 74 76 77 77 74 68 59 52 46 42 40 40 41 43 43 38 31 27 27 25 22 19 16 14 13 12 13 14 16 17 19 20 22 24 27 30 34 37 40 43 46 51 60 72 86 97 103 99 89 79 72 72 78 85 90
61 58 55 53 51 49 49 50 51 51 50 48 45 42 41 40 40 39 39 40 42 44 47 50 53 58 62 67 70 73 74 76 76 74 70 64 56 49 44 41 39 39 40 41 41 37 30 26 25 24 22 20 17 14 13 13 12 13 14 16 17 19 21 23 25 28 31 36 40 42 46 53 63 75 88 100 104 99 87 77 71 72 76 83 88
61 57 54 52 50 49 50 51 51 51 49 45 42 40 39 39 37 37 38 39 41 43 47 50 55 59 64 68 71 73 74 75 75 73 68 61 52 46 42 40 39 38 39 39 39 35 29 25 24 24 22 19 17 15 14 13 12 12 13 14 16 19 21 23 25 28 31 35 38 40 45 54 65 77 89 100 105 100 88 76 70 71 76 82 86
60 56 52 51 49 49 51 52 51 49 46 41 39 39 38 36 35 36 37 39 41 44 47 51 56 60 64 67 70 72 73 74 73 70 64 55 47 42 41 39 38 38 38 38 37 34 29 24 23 23 21 19 17 15 14 14 13 11 12 13 15 20 23 24 27 30 33 36 37 39 45 54 65 78 90 99 103 100 88 75 70 72 77 82 85
59 54 51 49 49 49 51 52 50 46 42 39 38 37 35 34 34 35 37 39 42 45 49 53 57 60 63 66 69 71 72 72 71 67 60 51 44 40 39 37 35 35 36 36 35 33 29 25 22 22 21 19 17 14 14 14 13 12 12 13 16 21 25 27 30 33 36 37 37 39 45 53 64 78 91 98 100 96 84 73 71 74 78 82 86
56 51 49 47 48 50 52 50 47 42 39 38 37 35 32 32 33 35 37 40 44 47 51 54 57 60 62 65 67 69 70 71 69 65 57 48 41 37 36 35 33 32 33 33 32 31 29 25 22 20 20 19 17 14 13 14 13 12 12 14 18 24 27 29 33 36 38 39 39 40 44 51 63 78 89 94 96 90 78 69 70 74 78 83 88
50 47 46 46 49 51 50 47 43 40 38 36 34 32 31 32 34 36 39 42 46 49 52 55 58 60 62 65 67 68 69 70 68 63 54 45 38 35 34 33 31 30 31 31 31 29 27 25 22 19 18 18 17 14 13 13 14 13 13 14 19 26 29 31 34 38 39 39 40 41 44 50 61 74 84 90 92 85 73 66 69 74 78 82 87
45 44 45 47 49 49 46 43 40 38 36 34 31 30 31 33 35 38 41 44 48 51 54 56 58 60 62 65 67 68 69 68 65 60 51 42 36 34 33 32 30 29 29 29 29 29 26 24 21 18 17 17 16 14 13 13 13 14 13 14 19 26 30 32 34 38 38 37 39 41 44 50 60 71 81 88 88 79 68 64 68 75 79 81 83
43 44 45 47 48 46 43 40 38 36 33 31 29 30 32 34 37 40 44 47 50 53 55 56 58 60 63 66 67 68 68 67 63 55 47 39 34 33 33 31 29 29 28 28 29 29 26 23 20 17 16 15 16 15 13 13 13 14 14 14 17 25 30 32 34 36 37 37 38 41 46 53 63 73 82 86 81 71 64 64 69 76 80 80 80
43 44 46 46 45 43 40 38 36 33 31 30 30 32 34 36 40 43 46 49 52 54 55 57 59 61 64 66 67 68 67 65 60 51 43 37 33 32 32 30 29 28 27 27 28 28 27 23 20 17 15 14 15 15 14 13 13 14 14 15 16 22 29 32 34 35 36 37 39 43 49 57 68 78 84 81 73 66 63 65 72 79 81 79 78
43 44 44 43 42 40 39 36 34 31 30 30 31 33 36 39 42 45 47 50 52 54 56 57 59 62 64 66 67 67 66 63 57 48 40 35 33 32 31 30 28 27 27 26 26 26 26 23 21 18 16 15 15 15 15 14 14 14 14 15 16 19 25 31 34 35 36 37 41 47 55 64 75 82 81 74 67 64 64 67 74 80 80 78 77
42 41 40 40 39 38 36 33 31 30 30 31 32 34 37 40 43 45 48 51 52 54 56 58 60 62 64 65 66 65 64 60 54 45 38 34 32 31 30 30 29 27 26 25 24 25 25 24 21 18 17 16 15 16 16 15 15 15 15 15 16 18 22 28 33 35 37 39 44 52 61 70 76 77 71 64 61 63 66 70 76 79 78 76 75
38 37 38 38 37 35 33 31 30 30 30 31 33 35 38 41 43 46 48 50 52 54 56 58 60 62 64 64 64 64 62 58 50 42 36 33 31 30 29 29 28 27 26 25 24 24 24 24 21 19 17 16 16 16 17 16 16 16 16 16 16 17 20 25 31 35 38 42 48 55 63 68 68 65 60 57 58 63 68 72 76 77 76 74 74
35 35 36 35 33 31 30 29 29 29 29 31 33 35 38 41 43 46 48 50 52 54 56 58 60 62 63 63 63 62 59 54 46 39 35 32 30 29 28 27 27 26 25 24 24 23 23 23 22 20 17 16 16 16 17 17 17 17 17 17 17 18 19 23 29 34 39 44 50 56 60 61 59 56 54 54 57 62 68 73 76 77 77 76 75
33 33 32 31 30 29 28 27 27 27 28 30 33 36 38 41 43 46 48 50 51 53 55 58 59 61 62 62 61 59 55 49 42 37 34 32 29 28 27 26 26 25 24 24 24 23 22 22 22 20 18 16 15 16 17 17 18 18 18 18 18 19 20 23 28 33 39 44 49 53 55 55 54 52 52 53 55 60 66 72 75 77 77 77 77
30 29 29 29 28 27 26 26 26 27 28 31 34 36 39 41 44 46 48 49 51 53 55 57 59 60 60 59 57 54 50 45 39 35 33 31 29 28 27 26 25 25 23 23 23 23 22 21 21 20 19 16 15 15 16 17 18 18 19 19 20 20 22 24 27 32 38 43 47 50 51 52 51 50 50 51 53 58 63 68 72 75 77 77 77
28 28 28 27 26 25 24 25 25 27 30 32 35 37 40 42 44 46 47 49 51 53 55 56 58 58 57 55 52 49 45 41 37 34 32 31 29 28 27 26 25 24 23 22 22 22 21 20 20 19 19 17 15 14 16 17 18 18 19 20 21 21 23 25 28 32 37 42 45 47 48 49 49 50 50 50 52 55 59 64 69 73 75 76 76
Wind_Direction
284 284 284 284 284 284 285 285 284 280 278 280 283 286 287 289 290 292 293 294 295 295 296 296 297 297 296 296 296 296 297 298 300 301 302 302 302 302 300 298 298 298 299 300 301 301 302 304 305 305 305 305 305 304 302 299 295 291 288 285 284 283 282 280 278 272 261 251 245 241 239 239 239 239 238 236 234 232 229 225 222 221 221 220 220
284 284 284 284 285 285 285 283 281 278 278 281 284 286 288 290 291 293 294 294 295 295 295 296 297 297 297 297 297 297 298 300 301 302 303 303 303 302 301 299 299 300 301 302 303 303 304 305 306 306 306 306 306 304 300 296 292 289 287 285 283 282 280 279 278 275 263 248 241 238 236 236 236 235 234 233 231 229 227 223 219 219 219 219 219
284 285 285 285 286 285 284 281 278 277 279 282 284 286 289 290 292 293 294 294 294 295 296 297 297 297 297 298 298 299 300 301 302 303 303 303 304 303 302 301 301 302 303 304 304 304 305 306 307 307 306 306 306 302 297 292 290 288 287 285 283 280 279 277 276 274 264 246 237 235 232 232 232 230 228 227 226 225 224 220 216 216 216 217 218
285 285 286 286 286 284 282 279 278 279 281 283 285 287 290 291 292 293 294 294 295 295 296 297 298 298 299 299 299 300 301 302 303 304 304 305 305 304 303 302 303 303 304 304 305 305 307 308 309 308 307 307 305 299 293 290 290 289 288 285 282 280 278 275 274 272 262 244 231 230 228 226 226 226 224 224 223 221 220 216 212 211 213 214 216
285 286 286 286 284 282 280 279 279 281 283 285 287 289 291 292 293 294 294 294 295 296 297 297 298 299 300 300 301 302 303 304 304 304 305 306 306 305 304 303 304 305 305 305 306 308 310 310 310 309 308 306 303 296 291 290 290 290 289 286 282 279 276 273 271 268 259 239 224 223 222 220 222 225 225 224 221 219 217 213 208 208 209 211 213
285 286 285 284 283 281 280 280 281 283 286 288 289 291 293 294 294 294 294 295 295 296 297 297 298 300 301 302 302 303 304 305 305 305 306 307 307 306 305 305 305 305 306 307 309 311 312 311 310 309 307 305 300 294 291 291 291 291 290 287 283 279 275 272 268 262 252 234 218 217 218 217 220 224 226 224 220 217 215 211 206 206 207 209 210
285 284 284 283 281 280 280 281 283 286 289 290 292 294 295 295 295 294 295 295 296 297 297 297 299 301 302 303 304 304 305 306 306 306 306 307 307 307 306 305 306 307 308 310 311 313 313 312 311 308 305 302 297 292 290 291 292 292 291 288 284 280 275 270 264 255 243 227 214 212 214 214 218 222 224 222 219 216 213 209 205 203 205 206 207
283 283 282 281 280 279 281 283 285 288 290 292 294 296 296 295 295 295 295 295 296 296 297 298 300 302 303 304 305 306 306 306 306 307 307 307 308 307 306 306 306 307 309 311 312 313 313 312 310 305 301 299 294 290 290 291 292 291 290 289 286 281 276 267 258 247 235 222 212 211 212 211 214 218 218 218 218 215 212 208 204 202 202 204 205
281 281 281 280 279 280 282 284 286 289 291 294 296 297 296 296 295 295 295 295 296 297 299 300 302 303 304 305 306 307 307 307 307 308 308 308 308 307 307 307 307 308 310 312 313 313 313 312 308 302 298 296 292 289 288 288 289 289 288 288 286 281 275 264 252 242 230 219 212 211 211 209 211 214 215 216 217 216 211 207 203 201 200 201 202
279 280 279 279 280 281 283 285 288 290 292 295 296 297 296 295 295 294 294 295 297 298 300 302 303 304 305 306 307 308 307 308 308 308 308 308 308 308 308 308 309 311 312 313 314 314 314 310 304 298 295 293 290 287 285 284 285 285 284 284 282 278 272 260 247 238 227 217 212 212 211 209 210 212 215 216 217 216 212 206 202 200 197 198 200
278 278 278 279 281 282 283 286 289 291 293 295 296 296 296 295 294 294 294 296 298 300 301 303 304 305 307 307 308 308 308 308 309 309 309 309 309 308 309 309 311 313 314 315 315 315 313 307 299 295 293 291 288 286 283 280 278 278 278 277 273 269 265 255 245 236 227 217 214 214 213 212 211 212 215 216 216 217 212 205 201 198 195 196 198
276 277 277 278 280 282 285 288 290 291 293 295 295 295 294 294 294 294 295 296 298 300 302 304 305 306 307 308 309 309 309 309 309 309 309 309 309 309 309 311 313 314 315 316 316 316 312 302 293 292 291 288 287 285 282 278 272 270 270 270 266 261 255 250 242 237 229 220 216 216 216 215 214 213 215 214 215 217 212 204 199 196 194 195 196
276 276 276 277 280 284 287 289 291 292 293 293 294 294 293 293 294 294 296 298 299 301 303 304 306 307 308 309 309 309 309 309 310 310 310 309 309 309 310 313 315 316 317 317 317 316 309 297 291 290 287 285 285 284 281 278 272 267 264 262 261 257 252 247 241 237 233 225 219 218 219 218 216 215 216 214 214 216 211 203 197 193 192 195 195
274 275 277 280 283 287 289 291 292 292 293 293 293 293 293 293 295 296 297 299 301 303 304 305 306 307 308 309 309 309 310 310 310 310 310 310 309 310 312 315 317 318 319 318 318 315 306 295 291 288 284 283 284 281 279 277 273 269 264 261 258 255 251 248 243 239 235 229 223 219 219 220 218 215 216 214 213 214 209 201 195 191 191 193 193
275 277 279 283 287 289 291 292 293 292 293 293 293 293 294 295 296 297 299 301 302 304 304 304 306 307 308 309 310 310 310 311 311 311 310 310 310 311 314 316 318 319 319 318 318 313 303 295 292 287 282 282 282 281 279 276 272 269 266 263 261 258 253 249 244 240 236 231 226 221 219 221 220 217 215 214 212 212 207 199 193 190 190 191 192
278 280 282 286 289 292 293 293 293 293 293 293 293 294 295 296 297 299 301 302 303 304 304 304 306 307 308 309 310 311 311 312 312 311 311 311 311 313 315 317 319 320 320 319 317 310 300 296 293 286 282 281 281 281 280 278 274 270 266 264 264 261 257 252 246 241 236 231 227 223 220 220 219 217 215 213 212 211 204 196 191 189 189 191 193
280 282 285 288 292 293 294 294 294 294 293 293 293 294 295 297 298 300 302 303 304 303 303 304 306 307 308 309 310 312 312 313 313 312 312 311 312 315 317 318 320 322 321 319 316 307 298 297 294 287 284 282 281 282 282 281 278 273 267 265 265 263 260 254 248 242 237 231 226 223 220 218 217 216 214 211 211 210 202 193 189 187 189 192 195
284 287 289 292 294 294 294 294 294 293 293 292 293 294 295 297 299 301 303 304 304 303 303 304 306 307 308 309 311 312 313 314 314 313 313 313 314 317 318 320 322 323 321 319 315 305 298 297 294 290 287 285 285 287 286 283 280 275 270 267 265 262 258 253 247 242 236 230 226 223 221 219 216 214 212 210 210 208 199 191 188 187 188 191 194
289 291 293 294 294 293 293 292 292 292 292 292 293 294 296 297 299 302 304 304 303 303 303 304 306 307 309 310 311 313 314 315 314 314 314 315 317 319 321 322 324 324 321 320 314 304 299 297 294 291 290 290 291 292 289 285 282 278 272 268 262 257 254 249 243 239 234 229 225 222 220 219 216 214 211 209 210 206 196 190 189 187 185 186 189
290 292 293 293 293 292 291 290 290 290 290 291 292 294 295 298 300 303 304 304 303 302 303 305 306 307 309 310 312 314 315 315 315 315 317 318 320 322 323 324 325 323 321 320 314 306 301 298 295 292 293 295 296 294 290 287 284 280 272 264 257 252 249 246 241 237 231 226 223 221 220 219 217 214 211 209 209 204 195 191 191 189 187 185 186
289 291 292 292 292 291 289 288 288 288 289 291 292 293 295 298 300 303 303 303 302 302 304 305 306 308 309 310 312 314 315 316 316 317 319 320 322 324 325 324 324 322 321 321 316 310 305 301 296 295 296 298 298 295 292 290 285 279 267 255 251 248 247 246 242 236 229 223 220 220 219 218 217 214 210 209 208 203 197 194 194 193 192 187 182
288 291 293 293 292 290 287 286 286 287 288 290 291 293 296 298 301 302 302 302 302 303 304 305 306 308 309 310 312 314 316 316 317 319 321 322 325 326 326 324 322 320 320 321 317 312 308 303 298 297 299 301 299 297 295 292 284 272 258 250 249 249 249 246 241 236 228 220 218 218 217 216 215 212 209 208 207 204 199 196 194 194 192 184 177
289 292 292 290 289 287 285 284 285 286 288 290 292 295 297 298 300 301 301 301 302 302 303 305 306 307 309 310 313 315 316 317 318 321 323 325 327 328 326 323 320 318 319 321 317 311 307 303 300 300 303 303 302 300 298 291 277 263 253 251 251 250 249 243 236 232 227 218 215 216 215 215 212 209 207 207 206 205 201 195 192 192 190 181 174
290 291 289 286 284 283 283 283 285 286 288 290 293 295 297 298 300 300 300 300 301 302 303 304 305 307 308 310 313 315 316 317 320 323 325 327 329 330 327 323 318 316 318 320 317 311 307 303 302 304 306 306 305 303 298 283 267 258 254 254 252 249 247 237 227 225 224 217 214 213 213 212 210 207 207 207 207 205 200 193 189 190 189 180 174
290 288 284 283 282 281 282 283 284 286 288 291 293 295 296 298 299 298 299 299 300 301 302 303 305 307 308 311 313 315 316 318 322 325 326 329 331 331 328 323 317 314 317 320 316 311 307 305 306 308 310 309 307 303 291 273 263 261 256 253 252 252 248 234 222 219 219 215 212 210 210 210 208 206 207 207 207 204 198 191 188 190 189 181 177
288 284 281 281 280 279 280 282 284 287 289 291 293 294 296 297 297 297 297 298 299 301 302 303 305 307 309 311 313 315 317 320 323 325 327 330 332 332 329 323 315 313 317 319 317 313 309 307 309 311 312 311 307 299 282 269 268 264 254 249 249 251 252 238 224 217 215 213 210 208 207 207 207 206 206 206 205 202 197 191 188 190 190 183 179
285 281 280 280 279 278 279 282 285 287 289 291 293 294 295 296 295 295 296 297 299 301 302 303 305 307 309 310 312 315 319 321 324 327 328 331 332 332 330 324 315 312 317 318 316 314 310 307 310 312 312 311 306 294 278 272 272 262 249 244 243 242 242 238 227 219 215 212 209 207 206 207 206 206 205 204 204 202 197 191 187 189 191 187 180
282 279 279 279 277 277 280 283 285 287 289 292 293 294 295 295 294 294 295 297 299 300 301 303 305 306 308 310 312 316 320 323 326 328 330 332 333 333 330 324 315 313 317 317 316 315 310 307 309 312 312 310 303 291 280 276 270 257 245 240 235 231 230 231 230 223 216 213 210 207 207 207 207 206 204 203 203 201 196 191 188 190 192 187 181
279 278 279 278 275 277 281 283 285 288 291 293 294 294 294 294 294 294 295 297 298 300 301 302 304 307 308 311 314 318 322 325 328 330 332 334 334 333 330 323 316 317 321 319 316 314 310 306 308 311 310 306 300 291 283 276 266 252 246 243 235 228 223 222 226 226 219 213 210 208 208 208 207 206 204 203 202 200 195 190 188 191 190 184 181
277 277 277 275 274 277 281 282 285 289 292 294 294 293 293 293 294 295 296 298 299 300 301 303 305 308 310 313 317 322 325 328 331 333 335 335 334 332 328 322 318 320 325 322 315 311 307 305 307 310 308 301 296 292 285 273 258 246 246 247 242 234 225 219 219 223 221 215 209 206 206 208 207 205 203 202 201 200 195 190 189 191 189 182 180
274 275 275 273 274 278 280 283 287 292 294 294 293 293 293 293 293 294 296 298 299 300 302 304 307 311 314 317 321 325 329 331 334 336 337 336 334 331 327 321 318 321 324 320 310 304 302 301 304 307 304 296 291 290 283 269 252 242 244 248 247 242 236 227 220 218 217 215 209 205 205 206 206 204 202 201 202 200 196 191 190 192 189 182 181
273 273 272 272 275 278 281 286 291 293 293 293 293 293 294 293 293 294 295 296 298 300 304 307 310 313 316 319 323 327 330 333 335 337 337 336 333 330 326 322 319 320 321 319 312 304 301 299 301 304 301 293 287 285 277 263 251 245 246 250 249 246 242 236 228 220 213 209 208 207 206 205 205 203 201 201 201 199 196 192 190 192 189 182 181
272 271 269 271 275 279 283 289 292 292 292 292 293 293 294 294 294 294 295 296 298 301 305 309 313 316 319 322 325 329 332 334 336 337 337 336 332 329 325 322 319 318 320 323 324 318 308 302 300 301 297 289 283 279 272 262 254 250 249 250 250 250 246 239 230 223 216 210 206 206 206 207 206 202 200 199 199 198 196 193 191 193 190 183 180
271 269 268 272 277 281 285 289 290 290 290 291 292 293 293 293 294 295 297 299 302 305 309 313 316 319 322 325 328 331 333 335 337 338 337 335 331 327 324 321 321 322 324 326 326 322 315 307 302 299 295 287 278 270 264 260 257 253 250 249 249 248 244 237 229 222 217 213 209 206 206 207 205 201 199 198 196 195 194 192 191 193 191 183 180
270 267 268 273 278 282 286 287 288 288 289 289 291 291 291 292 293 295 298 301 305 309 312 315 318 321 324 326 329 332 334 335 337 338 337 333 329 325 322 321 323 325 325 323 321 319 315 308 302 298 294 286 275 264 258 256 256 255 250 247 243 238 232 229 226 221 216 213 211 209 208 206 203 200 198 196 194 192 191 191 192 193 189 183 181
269 266 268 274 279 283 285 285 285 286 287 288 289 289 289 290 292 294 298 302 305 309 313 316 319 322 325 327 330 332 334 336 337 338 336 331 327 324 322 320 320 321 321 320 319 317 314 308 302 298 293 285 275 265 257 254 256 257 251 243 233 221 214 214 216 216 214 211 209 210 209 205 202 200 199 196 192 191 191 192 192 191 187 182 181
269 265 268 275 280 282 283 282 282 283 284 285 286 287 288 289 291 294 298 302 306 310 313 317 320 324 326 328 331 333 335 337 337 337 335 330 325 323 321 319 317 316 318 319 319 317 314 308 302 298 293 285 276 266 259 256 256 255 250 240 223 207 203 204 206 208 207 204 203 204 205 203 203 202 199 195 193 191 191 192 193 190 186 182 181
268 264 268 276 280 280 280 279 279 280 281 283 284 286 287 289 292 295 300 304 307 311 314 318 322 325 327 329 331 333 335 337 337 337 333 327 321 318 318 316 314 314 316 319 321 319 315 309 302 297 293 286 276 266 259 257 255 252 249 238 215 201 200 202 201 200 198 193 192 195 199 202 204 202 198 195 193 192 192 194 195 191 186 183 182
266 265 271 277 279 278 277 277 276 278 279 282 284 285 286 289 293 298 302 305 309 312 316 319 323 325 328 330 331 333 334 336 337 336 331 323 316 314 315 315 313 312 315 319 321 319 315 309 303 297 293 287 278 266 258 256 255 253 250 236 212 201 201 201 199 197 193 189 187 190 195 201 203 201 198 196 195 194 194 196 196 192 187 184 185
265 268 275 279 278 276 275 274 274 276 279 281 282 283 286 291 295 300 303 307 310 314 317 321 324 326 328 330 331 333 334 336 337 335 330 321 313 311 313 313 312 312 314 318 321 320 315 309 303 295 291 288 281 269 258 254 253 252 250 234 213 203 200 200 198 195 191 187 186 188 193 199 202 201 199 197 196 194 195 197 197 193 188 185 186
267 273 278 278 275 273 272 271 272 275 278 279 280 283 288 293 298 302 305 309 312 316 319 322 324 327 329 330 331 333 335 336 337 335 329 319 310 309 312 312 311 311 313 317 321 320 315 308 302 294 288 285 281 271 259 253 250 248 247 233 215 205 202 199 196 192 186 183 184 187 191 197 201 201 200 198 196 195 197 199 198 195 190 187 186
271 276 277 275 272 271 269 269 272 274 275 277 280 285 290 295 299 303 307 310 314 317 320 323 325 327 329 330 332 333 336 337 337 334 327 317 308 309 313 313 311 311 313 316 320 320 316 308 300 291 283 280 279 271 259 250 246 245 244 234 216 206 202 199 194 189 184 181 182 186 190 195 198 199 199 197 196 197 200 202 200 197 193 190 189
272 274 273 271 269 268 267 268 271 272 273 276 281 287 292 297 300 304 308 312 315 317 320 323 325 327 329 331 332 335 337 339 338 333 324 313 306 308 313 314 312 311 312 315 319 321 319 312 302 288 276 271 272 268 258 248 242 240 240 236 219 207 202 199 194 188 184 182 183 185 189 193 196 196 195 195 196 200 203 203 200 197 195 194 193
271 270 269 267 266 265 266 268 270 270 273 278 284 289 294 298 302 305 309 312 315 318 320 323 325 327 329 331 334 336 338 339 338 331 320 310 305 307 312 314 312 311 312 314 317 320 321 318 309 295 279 268 265 262 255 246 239 235 235 235 224 210 203 199 194 189 186 185 186 187 190 192 192 192 192 195 200 204 205 202 198 196 195 194 194
267 266 265 264 263 263 265 266 268 270 275 281 286 291 295 299 303 307 310 313 315 318 320 323 325 328 330 333 335 337 339 340 337 328 316 307 303 305 310 313 312 310 310 311 313 317 320 320 314 303 289 275 266 260 252 243 237 233 231 231 227 216 206 200 195 190 187 187 188 189 190 189 189 190 194 199 205 206 204 200 197 196 196 196 195
263 262 261 261 261 262 263 266 268 273 279 284 289 293 297 301 305 308 311 313 316 318 321 323 326 329 331 334 335 337 339 339 335 325 313 305 303 304 309 312 311 308 306 307 310 315 319 320 317 307 294 282 272 264 254 243 235 232 230 228 228 221 211 202 196 192 189 189 190 190 189 189 190 194 200 206 208 206 202 198 197 197 198 199 198
259 258 257 258 258 260 263 267 272 277 283 287 291 296 300 304 307 310 312 314 317 319 321 324 327 329 332 334 335 337 338 338 332 321 311 304 302 303 307 311 310 307 305 304 307 312 316 319 318 311 298 285 275 268 258 246 235 230 229 227 227 224 216 206 199 194 190 190 191 191 191 193 196 202 208 210 209 205 201 198 197 198 199 201 202
254 253 253 254 257 260 265 270 275 281 286 290 296 300 304 307 310 312 314 316 318 320 322 325 328 330 332 333 334 336 337 335 328 317 308 303 300 301 305 309 311 308 305 303 304 308 312 315 318 315 304 289 277 268 261 250 238 230 228 227 226 225 219 211 203 196 192 192 193 195 196 200 204 208 210 210 208 206 202 199 198 199 200 202 204
248 248 250 254 258 263 268 273 278 284 290 296 300 304 307 310 312 313 315 317 319 321 324 326 328 330 331 332 333 334 334 331 324 314 307 302 300 301 305 309 310 309 306 303 302 305 308 311 315 315 308 293 278 268 261 253 242 232 227 226 225 225 221 214 206 199 195 194 196 198 201 205 207 208 208 208 207 207 205 202 201 201 201 203 205
245 248 252 256 260 264 270 276 283 290 296 301 304 307 310 312 313 314 316 318 320 323 325 327 328 329 329 330 331 331 330 327 320 312 307 304 301 302 305 308 310 309 307 303 301 302 304 306 310 313 311 300 283 269 260 255 247 237 229 225 224 224 221 217 211 204 200 198 198 200 202 205 207 207 206 206 206 207 207 206 205 203 203 204 206
246 250 253 257 261 267 274 281 289 295 300 303 306 310 311 312 313 315 317 319 321 323 325 326 326 327 327 328 328 327 325 322 317 311 307 304 301 300 303 307 309 310 309 306 303 301 301 302 305 310 311 306 292 273 261 255 250 243 233 226 223 222 221 219 215 209 205 202 201 201 202 204 206 206 206 206 206 206 207 208 208 207 206 206 206
Height
5621 5619 5617 5615 5613 5611 5609 5607 5604 5602 5599 5596 5593 5590 5587 5584 5581 5577 5574 5570 5566 5563 5558 5554 5550 5545 5540 5534 5529 5523 5517 5511 5505 5500 5494 5488 5481 5476 5470 5465 5460 5455 5449 5443 5436 5428 5422 5417 5410 5399 5386 5375 5368 5357 5345 5336 5328 5323 5321 5317 5314 5311 5306 5300 5296 5299 5308 5314 5316 5321 5327 5332 5338 5346 5355 5363 5370 5377 5387 5399 5410 5420 5430 5442 5454
5613 5611 5609 5606 5604 5602 5600 5598 5596 5593 5591 5588 5585 5582 5578 5575 5572 5568 5565 5561 5557 5553 5548 5545 5540 5535 5530 5524 5518 5513 5507 5501 5495 5489 5483 5476 5470 5465 5459 5454 5449 5443 5437 5431 5424 5415 5408 5403 5394 5382 5370 5359 5350 5340 5330 5323 5316 5311 5310 5307 5304 5303 5299 5292 5288 5288 5295 5301 5304 5307 5314 5319 5324 5332 5340 5347 5355 5362 5371 5382 5394 5405 5417 5432 5444
5605 5603 5601 5598 5596 5594 5592 5590 5588 5585 5583 5580 5576 5573 5569 5566 5563 5559 5555 5551 5547 5543 5539 5535 5530 5525 5520 5514 5508 5503 5497 5491 5485 5478 5471 5465 5460 5454 5449 5443 5438 5433 5426 5419 5412 5404 5396 5389 5379 5366 5354 5345 5336 5326 5317 5312 5306 5301 5300 5297 5293 5292 5290 5284 5281 5281 5284 5289 5293 5296 5303 5309 5313 5321 5327 5332 5339 5346 5355 5367 5379 5391 5405 5419 5432
5597 5595 5593 5590 5588 5586 5584 5582 5579 5577 5574 5571 5568 5564 5561 5557 5554 5550 5547 5543 5538 5534 5530 5525 5520 5515 5510 5504 5498 5493 5487 5481 5475 5468 5461 5454 5450 5445 5439 5433 5428 5422 5416 5409 5401 5393 5384 5375 5364 5352 5340 5330 5322 5314 5307 5301 5297 5291 5289 5286 5282 5280 5279 5276 5274 5273 5274 5279 5285 5289 5295 5300 5305 5312 5317 5320 5326 5333 5341 5352 5363 5376 5391 5406 5420
5589 5587 5585 5582 5580 5578 5575 5574 5572 5569 5566 5563 5559 5556 5552 5549 5545 5541 5538 5533 5529 5525 5520 5515 5510 5505 5499 5494 5488 5482 5477 5471 5464 5457 5451 5444 5439 5435 5429 5424 5418 5412 5405 5398 5389 5380 5370 5360 5348 5335 5324 5316 5310 5304 5298 5293 5288 5283 5279 5275 5272 5269 5268 5267 5267 5266 5265 5270 5278 5282 5287 5292 5297 5304 5308 5311 5316 5323 5329 5340 5352 5363 5377 5392 5408
5581 5579 5576 5574 5572 5570 5568 5566 5564 5561 5558 5554 5551 5547 5544 5540 5536 5532 5528 5524 5519 5515 5510 5505 5500 5495 5489 5483 5478 5472 5466 5460 5454 5447 5441 5435 5430 5425 5419 5414 5408 5402 5395 5387 5377 5366 5355 5344 5332 5320 5309 5303 5299 5295 5290 5285 5280 5275 5270 5266 5262 5260 5259 5259 5259 5259 5259 5263 5270 5276 5281 5287 5291 5297 5301 5304 5309 5314 5321 5331 5343 5356 5369 5382 5398
5573 5570 5568 5566 5563 5562 5560 5558 5555 5552 5549 5546 5542 5539 5535 5531 5527 5523 5519 5514 5509 5505 5500 5495 5490 5485 5479 5473 5468 5462 5456 5450 5444 5438 5432 5426 5420 5415 5410 5404 5398 5392 5385 5375 5364 5354 5344 5331 5319 5307 5297 5292 5290 5287 5283 5278 5273 5268 5263 5259 5256 5253 5252 5253 5253 5253 5254 5259 5265 5271 5276 5281 5286 5291 5295 5299 5302 5307 5314 5323 5334 5348 5363 5376 5391
5564 5562 5559 5557 5555 5554 5552 5550 5547 5544 5540 5537 5534 5530 5526 5522 5517 5513 5508 5504 5499 5495 5491 5486 5481 5476 5470 5464 5458 5452 5446 5440 5434 5428 5422 5416 5411 5406 5401 5395 5389 5382 5375 5365 5353 5342 5332 5321 5309 5297 5287 5284 5283 5280 5276 5271 5267 5263 5259 5255 5252 5249 5248 5248 5248 5248 5251 5256 5262 5268 5271 5275 5280 5285 5289 5293 5297 5302 5308 5316 5327 5341 5355 5370 5385
5556 5554 5551 5549 5547 5545 5543 5541 5538 5535 5532 5528 5525 5521 5517 5512 5507 5502 5498 5494 5489 5485 5481 5476 5472 5466 5460 5454 5448 5442 5436 5430 5424 5418 5412 5406 5400 5395 5390 5384 5378 5371 5365 5355 5342 5330 5317 5307 5298 5288 5279 5276 5275 5273 5269 5266 5262 5259 5255 5252 5249 5247 5246 5245 5246 5247 5250 5255 5260 5265 5268 5271 5276 5280 5283 5286 5291 5297 5303 5310 5320 5332 5346 5363 5379
5547 5545 5543 5541 5539 5537 5535 5532 5529 5526 5523 5520 5516 5512 5507 5502 5497 5492 5488 5484 5480 5476 5471 5467 5462 5457 5451 5444 5438 5432 5426 5420 5414 5407 5401 5394 5389 5384 5379 5373 5365 5358 5351 5342 5331 5318 5304 5292 5285 5279 5273 5270 5268 5266 5263 5260 5258 5256 5253 5250 5247 5246 5245 5245 5245 5246 5249 5254 5259 5261 5265 5269 5273 5277 5280 5283 5288 5294 5301 5308 5317 5328 5342 5358 5374
5539 5537 5535 5532 5530 5528 5526 5524 5521 5517 5514 5511 5506 5502 5497 5492 5487 5482 5478 5474 5470 5466 5462 5457 5452 5447 5442 5435 5429 5422 5416 5410 5404 5397 5390 5383 5377 5372 5368 5362 5354 5346 5337 5329 5318 5306 5293 5282 5274 5270 5267 5263 5261 5259 5258 5255 5253 5251 5250 5248 5246 5245 5245 5245 5245 5246 5248 5253 5257 5259 5263 5267 5271 5274 5278 5282 5286 5292 5298 5305 5316 5328 5340 5354 5368
5530 5528 5526 5523 5521 5519 5517 5515 5512 5508 5505 5501 5497 5492 5487 5482 5478 5473 5470 5466 5461 5457 5452 5447 5443 5438 5432 5426 5419 5412 5406 5400 5394 5387 5380 5373 5366 5360 5356 5350 5343 5335 5325 5315 5304 5292 5282 5273 5266 5262 5260 5257 5255 5253 5252 5251 5249 5247 5246 5245 5245 5244 5244 5244 5244 5246 5247 5251 5255 5258 5262 5266 5270 5273 5276 5279 5284 5288 5294 5302 5313 5325 5337 5349 5361
5521 5519 5517 5515 5513 5511 5509 5506 5503 5499 5495 5491 5487 5483 5478 5474 5469 5465 5461 5457 5453 5448 5443 5438 5433 5428 5423 5417 5410 5403 5397 5390 5384 5376 5370 5363 5356 5349 5344 5338 5331 5322 5313 5302 5290 5279 5271 5264 5259 5255 5252 5250 5249 5247 5246 5245 5244 5242 5241 5241 5241 5242 5242 5242 5243 5244 5245 5248 5252 5256 5261 5264 5267 5271 5275 5277 5280 5284 5290 5298 5308 5320 5333 5345 5356
5512 5510 5508 5506 5505 5503 5499 5496 5493 5489 5486 5482 5478 5474 5469 5465 5461 5457 5453 5449 5444 5439 5433 5428 5423 5418 5413 5408 5402 5394 5387 5380 5374 5366 5359 5353 5346 5339 5333 5326 5318 5310 5299 5288 5277 5267 5260 5255 5251 5248 5245 5243 5242 5241 5240 5239 5238 5237 5237 5236 5236 5237 5238 5239 5240 5241 5243 5246 5249 5253 5257 5259 5263 5268 5271 5273 5276 5280 5286 5294 5304 5316 5328 5341 5354
5504 5502 5500 5498 5496 5493 5490 5487 5483 5480 5477 5473 5469 5465 5461 5457 5453 5448 5444 5440 5436 5431 5425 5419 5414 5408 5403 5399 5393 5385 5378 5371 5364 5356 5348 5342 5336 5329 5323 5316 5309 5299 5288 5276 5266 5257 5251 5246 5243 5240 5239 5237 5235 5233 5232 5231 5230 5230 5230 5230 5231 5231 5232 5233 5235 5236 5238 5241 5244 5248 5250 5253 5257 5263 5266 5269 5272 5276 5282 5291 5301 5313 5325 5338 5352
5496 5494 5492 5490 5487 5484 5481 5477 5474 5471 5468 5464 5460 5456 5453 5449 5444 5440 5436 5432 5427 5422 5416 5410 5405 5399 5393 5389 5384 5377 5369 5361 5354 5346 5339 5332 5326 5320 5313 5306 5299 5290 5278 5267 5257 5249 5242 5237 5234 5233 5231 5230 5228 5225 5223 5221 5221 5221 5222 5222 5223 5223 5224 5225 5227 5229 5232 5235 5238 5241 5244 5247 5252 5257 5261 5264 5267 5272 5279 5288 5299 5310 5322 5335 5348
5488 5486 5483 5481 5478 5475 5471 5468 5465 5462 5458 5455 5452 5448 5444 5440 5436 5432 5427 5423 5418 5413 5408 5401 5395 5391 5385 5379 5375 5369 5361 5353 5345 5337 5329 5322 5316 5310 5303 5296 5288 5279 5268 5257 5249 5241 5234 5229 5226 5225 5224 5222 5220 5218 5214 5211 5211 5212 5211 5211 5212 5213 5213 5214 5216 5219 5223 5226 5230 5233 5236 5240 5244 5249 5254 5258 5262 5268 5275 5285 5296 5307 5318 5330 5341
5479 5477 5474 5471 5468 5465 5462 5459 5456 5453 5450 5446 5443 5439 5436 5431 5427 5424 5419 5414 5409 5404 5399 5393 5387 5381 5376 5370 5365 5360 5353 5345 5337 5329 5321 5312 5305 5299 5292 5285 5277 5268 5257 5248 5241 5233 5227 5222 5218 5216 5215 5214 5212 5210 5206 5202 5201 5201 5200 5199 5200 5202 5202 5201 5203 5208 5212 5216 5220 5224 5228 5233 5237 5241 5247 5252 5257 5263 5271 5281 5292 5303 5313 5324 5335
5470 5467 5464 5462 5458 5455 5453 5450 5447 5444 5441 5438 5434 5430 5427 5423 5419 5415 5411 5406 5401 5396 5391 5385 5379 5373 5367 5361 5356 5351 5345 5338 5329 5321 5313 5303 5294 5287 5280 5272 5265 5256 5247 5239 5233 5226 5220 5215 5211 5207 5206 5205 5204 5201 5197 5193 5191 5190 5189 5188 5190 5192 5191 5190 5192 5197 5202 5206 5211 5216 5220 5226 5230 5235 5241 5247 5252 5259 5267 5278 5288 5297 5308 5318 5328
5460 5457 5455 5452 5449 5446 5444 5441 5438 5435 5432 5429 5425 5421 5418 5414 5410 5407 5402 5397 5392 5387 5383 5378 5372 5365 5359 5352 5347 5342 5337 5331 5323 5314 5306 5295 5285 5276 5268 5258 5251 5244 5237 5231 5225 5219 5214 5208 5204 5200 5197 5196 5194 5191 5188 5183 5180 5179 5178 5179 5181 5183 5182 5181 5183 5188 5192 5197 5203 5209 5215 5221 5226 5231 5238 5243 5249 5256 5264 5273 5282 5291 5303 5313 5321
5451 5448 5446 5443 5440 5437 5435 5431 5428 5425 5422 5420 5417 5413 5410 5406 5402 5398 5393 5388 5384 5379 5374 5370 5364 5358 5351 5345 5339 5334 5329 5324 5317 5309 5299 5289 5278 5267 5257 5247 5237 5231 5227 5223 5217 5212 5207 5202 5197 5193 5190 5188 5185 5181 5177 5174 5170 5169 5170 5172 5173 5174 5174 5173 5175 5179 5182 5188 5194 5200 5207 5214 5220 5227 5235 5241 5246 5253 5260 5269 5278 5288 5300 5310 5316
5442 5439 5436 5433 5430 5427 5425 5422 5419 5416 5413 5411 5408 5405 5402 5398 5394 5390 5385 5380 5376 5371 5366 5362 5356 5350 5344 5337 5332 5328 5322 5316 5310 5303 5294 5283 5272 5260 5249 5239 5228 5220 5217 5215 5211 5205 5200 5196 5191 5187 5184 5180 5175 5171 5168 5164 5161 5162 5164 5165 5166 5166 5166 5166 5168 5171 5175 5180 5186 5193 5200 5207 5213 5221 5230 5236 5242 5248 5255 5265 5275 5287 5298 5304 5310
5432 5430 5427 5424 5421 5418 5416 5413 5410 5406 5404 5402 5400 5397 5394 5390 5386 5382 5378 5373 5368 5363 5359 5354 5348 5343 5337 5331 5325 5321 5316 5309 5303 5296 5287 5277 5267 5255 5243 5232 5222 5213 5209 5208 5205 5200 5195 5190 5185 5182 5177 5172 5167 5163 5159 5156 5155 5156 5158 5158 5158 5158 5158 5158 5162 5166 5169 5174 5180 5188 5195 5202 5208 5216 5224 5231 5236 5242 5250 5262 5273 5285 5293 5297 5303
5423 5421 5418 5415 5412 5410 5407 5404 5401 5398 5396 5393 5392 5389 5385 5382 5378 5374 5370 5365 5360 5355 5351 5346 5341 5335 5330 5325 5320 5315 5309 5303 5296 5288 5279 5270 5260 5250 5239 5227 5217 5209 5204 5202 5199 5194 5189 5185 5181 5176 5172 5166 5160 5156 5153 5151 5151 5152 5153 5153 5152 5152 5152 5153 5156 5159 5163 5170 5177 5185 5192 5198 5205 5213 5221 5227 5231 5236 5245 5257 5269 5279 5286 5290 5298
5413 5411 5408 5406 5404 5401 5399 5396 5393 5390 5388 5385 5383 5380 5377 5373 5369 5365 5361 5357 5352 5348 5343 5338 5333 5328 5323 5318 5313 5309 5303 5297 5290 5282 5273 5264 5255 5245 5235 5224 5214 5206 5201 5197 5193 5189 5184 5180 5176 5172 5167 5161 5156 5152 5149 5148 5148 5148 5149 5148 5148 5148 5148 5149 5151 5154 5159 5166 5173 5181 5188 5194 5201 5209 5217 5222 5227 5232 5241 5253 5266 5276 5281 5286 5293
5404 5402 5399 5397 5395 5393 5390 5387 5384 5382 5379 5377 5375 5372 5368 5365 5360 5356 5352 5348 5344 5339 5335 5330 5326 5321 5316 5311 5306 5302 5297 5290 5283 5276 5267 5259 5250 5241 5231 5221 5211 5204 5199 5193 5189 5184 5180 5176 5172 5168 5163 5158 5153 5149 5147 5146 5146 5146 5146 5145 5145 5146 5147 5148 5149 5152 5156 5162 5167 5174 5182 5188 5194 5203 5210 5217 5224 5230 5239 5252 5264 5273 5277 5282 5289
5395 5392 5390 5388 5386 5384 5381 5378 5376 5373 5371 5368 5366 5363 5359 5356 5352 5348 5343 5340 5336 5331 5327 5323 5319 5314 5310 5305 5300 5296 5290 5283 5276 5268 5260 5252 5244 5235 5225 5216 5208 5202 5197 5191 5186 5181 5177 5173 5169 5166 5161 5156 5152 5149 5147 5146 5145 5144 5144 5144 5144 5145 5145 5146 5148 5150 5154 5159 5163 5170 5176 5181 5187 5196 5204 5212 5220 5227 5237 5250 5261 5269 5274 5278 5285
5385 5382 5380 5379 5377 5374 5372 5370 5368 5365 5362 5360 5357 5353 5350 5347 5343 5339 5335 5332 5329 5325 5320 5317 5313 5308 5304 5299 5294 5290 5284 5277 5269 5261 5252 5244 5236 5227 5218 5209 5203 5198 5194 5188 5182 5178 5174 5171 5167 5163 5159 5154 5151 5148 5146 5145 5144 5143 5143 5143 5143 5144 5145 5146 5147 5149 5153 5157 5161 5167 5172 5176 5183 5193 5201 5207 5215 5223 5235 5248 5259 5266 5271 5274 5281
5375 5372 5371 5370 5367 5365 5363 5361 5359 5357 5354 5351 5348 5344 5341 5338 5335 5331 5328 5324 5321 5318 5314 5311 5307 5302 5298 5292 5287 5283 5278 5271 5263 5254 5244 5235 5226 5218 5209 5202 5196 5193 5189 5184 5179 5175 5171 5168 5165 5161 5157 5153 5150 5148 5146 5145 5144 5142 5142 5143 5143 5144 5144 5145 5147 5149 5151 5153 5157 5163 5168 5173 5181 5191 5198 5204 5213 5221 5232 5245 5255 5261 5267 5271 5279
5365 5363 5362 5360 5357 5356 5354 5352 5351 5349 5346 5343 5340 5336 5332 5329 5326 5322 5319 5316 5313 5310 5307 5303 5299 5295 5290 5284 5278 5273 5268 5263 5256 5247 5238 5229 5220 5211 5204 5196 5191 5189 5185 5181 5177 5172 5169 5165 5163 5160 5156 5152 5149 5147 5146 5145 5143 5142 5142 5142 5142 5143 5144 5145 5146 5148 5150 5152 5155 5158 5163 5170 5178 5188 5195 5202 5211 5219 5229 5241 5251 5257 5263 5270 5279
5356 5354 5352 5350 5348 5347 5345 5343 5342 5340 5337 5335 5332 5328 5325 5321 5318 5315 5311 5308 5306 5303 5299 5296 5291 5286 5282 5277 5272 5266 5259 5253 5246 5239 5231 5222 5214 5207 5200 5194 5188 5185 5182 5179 5175 5170 5167 5163 5160 5158 5155 5151 5149 5147 5145 5144 5143 5142 5142 5142 5142 5143 5144 5145 5146 5148 5151 5154 5157 5159 5162 5168 5176 5184 5192 5200 5208 5215 5226 5238 5247 5254 5262 5269 5277
5346 5345 5343 5341 5339 5338 5337 5335 5333 5331 5329 5326 5323 5320 5317 5314 5311 5310 5307 5304 5300 5297 5292 5288 5284 5279 5275 5270 5266 5260 5254 5247 5240 5232 5224 5216 5208 5200 5195 5190 5186 5182 5178 5175 5171 5167 5164 5161 5158 5156 5153 5150 5148 5146 5144 5144 5143 5142 5142 5142 5142 5143 5144 5145 5146 5148 5150 5153 5157 5161 5165 5170 5176 5183 5190 5197 5205 5213 5224 5236 5246 5253 5260 5267 5275
5337 5336 5334 5332 5331 5329 5328 5326 5325 5323 5320 5318 5315 5312 5309 5306 5303 5302 5300 5298 5296 5292 5287 5283 5279 5274 5270 5264 5259 5254 5248 5241 5234 5226 5218 5210 5202 5195 5189 5185 5182 5178 5174 5171 5167 5164 5161 5158 5156 5154 5151 5149 5147 5145 5143 5143 5143 5142 5142 5142 5141 5142 5142 5143 5145 5148 5149 5152 5156 5160 5165 5171 5177 5183 5190 5196 5204 5213 5225 5236 5246 5252 5257 5263 5272
5328 5327 5324 5323 5322 5320 5319 5318 5316 5314 5312 5309 5307 5304 5302 5299 5297 5294 5292 5290 5287 5284 5280 5277 5273 5269 5264 5259 5253 5247 5240 5234 5228 5221 5213 5205 5198 5191 5186 5181 5177 5174 5170 5166 5164 5161 5158 5155 5153 5151 5149 5147 5145 5144 5143 5142 5142 5142 5141 5141 5140 5140 5141 5142 5143 5146 5148 5152 5155 5159 5163 5169 5175 5182 5189 5197 5206 5216 5226 5236 5244 5250 5255 5262 5271
5319 5318 5316 5314 5313 5312 5311 5309 5308 5306 5304 5302 5299 5297 5295 5293 5291 5289 5287 5284 5281 5276 5273 5270 5266 5262 5257 5252 5246 5241 5235 5228 5222 5215 5207 5200 5194 5188 5184 5180 5176 5173 5170 5166 5162 5159 5156 5153 5151 5149 5147 5145 5144 5143 5142 5141 5141 5141 5140 5140 5139 5139 5139 5140 5142 5144 5147 5150 5154 5158 5162 5167 5173 5180 5187 5196 5207 5217 5227 5235 5243 5249 5255 5261 5270
5311 5309 5307 5306 5305 5304 5303 5301 5300 5298 5297 5295 5293 5291 5289 5287 5286 5285 5283 5280 5277 5272 5268 5264 5261 5256 5251 5245 5239 5234 5228 5223 5217 5210 5203 5196 5190 5185 5182 5178 5175 5172 5169 5166 5161 5157 5153 5151 5148 5147 5145 5144 5142 5141 5141 5140 5140 5140 5139 5138 5138 5138 5138 5139 5141 5144 5146 5149 5153 5156 5161 5166 5173 5179 5186 5196 5207 5217 5226 5234 5242 5248 5254 5260 5268
5302 5300 5299 5298 5298 5297 5296 5294 5293 5291 5289 5288 5286 5285 5283 5282 5281 5280 5278 5275 5272 5268 5264 5260 5255 5250 5245 5239 5232 5226 5221 5216 5210 5204 5197 5190 5184 5180 5178 5175 5172 5169 5166 5163 5159 5154 5151 5148 5146 5145 5143 5142 5141 5140 5139 5139 5139 5138 5138 5137 5136 5136 5137 5139 5141 5144 5146 5149 5153 5157 5161 5167 5173 5179 5186 5196 5207 5216 5225 5233 5241 5247 5252 5259 5267
5293 5292 5291 5290 5290 5290 5288 5287 5286 5284 5283 5281 5280 5278 5278 5277 5276 5275 5273 5269 5266 5263 5259 5255 5251 5246 5240 5235 5228 5222 5216 5211 5204 5197 5191 5185 5180 5177 5175 5172 5169 5165 5163 5160 5156 5152 5148 5146 5144 5143 5141 5140 5139 5138 5138 5138 5138 5137 5136 5136 5135 5136 5137 5139 5141 5144 5147 5150 5153 5158 5163 5168 5173 5179 5188 5197 5206 5215 5225 5233 5240 5246 5251 5257 5265
5284 5284 5283 5283 5283 5282 5281 5280 5279 5278 5276 5275 5274 5273 5273 5272 5271 5269 5267 5264 5261 5258 5254 5250 5246 5241 5236 5231 5225 5219 5213 5207 5201 5194 5188 5183 5179 5176 5172 5169 5166 5163 5160 5157 5154 5150 5147 5144 5143 5141 5139 5138 5137 5137 5137 5137 5137 5136 5136 5135 5135 5136 5137 5139 5141 5144 5147 5150 5155 5159 5165 5170 5174 5181 5189 5197 5206 5216 5225 5232 5238 5244 5249 5255 5264
5277 5276 5276 5276 5276 5275 5274 5274 5273 5271 5270 5269 5268 5268 5267 5266 5265 5263 5260 5258 5255 5252 5248 5244 5240 5236 5231 5226 5221 5216 5211 5204 5198 5191 5185 5180 5176 5173 5170 5167 5164 5161 5158 5155 5152 5148 5145 5143 5141 5140 5138 5137 5136 5135 5135 5135 5135 5136 5135 5135 5136 5137 5138 5140 5142 5144 5146 5150 5155 5160 5165 5171 5176 5182 5190 5198 5207 5216 5224 5231 5237 5242 5248 5256 5265
5269 5269 5269 5269 5269 5268 5268 5267 5266 5265 5264 5263 5263 5262 5261 5260 5259 5257 5254 5252 5249 5246 5242 5238 5234 5230 5225 5220 5216 5211 5206 5200 5194 5187 5181 5176 5173 5170 5167 5164 5161 5158 5156 5153 5150 5147 5144 5142 5140 5138 5137 5136 5135 5134 5133 5133 5134 5135 5135 5135 5136 5137 5139 5140 5142 5144 5146 5149 5154 5160 5166 5171 5177 5183 5190 5198 5207 5216 5224 5229 5235 5241 5248 5255 5263
5262 5262 5262 5262 5262 5262 5262 5261 5260 5259 5258 5258 5258 5257 5255 5254 5252 5250 5248 5246 5243 5240 5236 5232 5228 5224 5219 5215 5210 5205 5200 5194 5188 5182 5177 5172 5169 5166 5164 5161 5158 5156 5153 5151 5148 5145 5142 5140 5138 5137 5135 5134 5133 5133 5132 5132 5132 5133 5134 5134 5135 5137 5139 5141 5143 5145 5147 5149 5153 5159 5166 5171 5177 5183 5190 5198 5207 5216 5222 5228 5233 5240 5246 5253 5260
5255 5255 5255 5255 5255 5256 5256 5255 5255 5254 5253 5253 5252 5251 5249 5248 5246 5244 5242 5240 5237 5234 5231 5226 5222 5218 5213 5209 5204 5199 5193 5188 5183 5177 5172 5169 5166 5163 5161 5158 5155 5153 5150 5148 5146 5143 5140 5138 5136 5135 5134 5133 5132 5132 5131 5131 5131 5132 5133 5134 5135 5137 5139 5142 5144 5146 5148 5150 5154 5159 5165 5171 5176 5182 5190 5198 5207 5214 5220 5225 5231 5237 5243 5250 5256
5248 5249 5249 5249 5250 5250 5250 5250 5249 5249 5248 5248 5247 5245 5244 5243 5241 5239 5236 5233 5231 5228 5224 5220 5216 5212 5208 5203 5198 5193 5188 5183 5178 5173 5169 5165 5163 5160 5158 5155 5152 5150 5147 5145 5143 5141 5138 5136 5134 5133 5132 5131 5131 5131 5131 5130 5131 5131 5132 5133 5134 5136 5139 5141 5144 5146 5149 5152 5155 5160 5164 5169 5174 5181 5189 5198 5205 5211 5216 5221 5227 5233 5239 5246 5252
5242 5242 5243 5243 5244 5244 5244 5244 5244 5244 5243 5243 5241 5240 5239 5237 5235 5233 5231 5228 5225 5222 5218 5215 5211 5206 5201 5197 5192 5187 5183 5178 5173 5169 5165 5162 5160 5157 5155 5152 5150 5147 5145 5143 5141 5139 5137 5135 5133 5131 5130 5129 5129 5129 5129 5129 5130 5130 5131 5132 5133 5134 5137 5140 5142 5145 5149 5152 5155 5159 5163 5168 5174 5181 5189 5196 5202 5207 5212 5217 5222 5229 5235 5242 5249
5236 5237 5238 5238 5239 5239 5239 5239 5239 5239 5238 5237 5236 5235 5234 5232 5230 5228 5225 5222 5220 5216 5213 5209 5205 5200 5196 5191 5186 5182 5178 5173 5169 5165 5161 5159 5156 5154 5151 5149 5147 5144 5142 5141 5139 5136 5135 5133 5131 5130 5128 5127 5127 5127 5127 5128 5129 5129 5129 5130 5131 5132 5134 5137 5140 5143 5147 5150 5154 5158 5163 5168 5175 5182 5189 5194 5198 5203 5208 5213 5219 5225 5232 5238 5245
5231 5232 5232 5233 5234 5234 5234 5235 5234 5234 5233 5232 5231 5230 5228 5226 5224 5222 5219 5217 5214 5211 5207 5203 5199 5194 5190 5185 5181 5177 5173 5169 5165 5161 5158 5155 5153 5151 5148 5146 5144 5141 5140 5138 5136 5134 5132 5130 5129 5128 5127 5126 5125 5125 5125 5126 5127 5127 5128 5129 5129 5130 5132 5134 5137 5140 5144 5147 5152 5157 5163 5169 5176 5182 5187 5191 5195 5199 5204 5210 5216 5222 5229 5235 5242
5226 5227 5227 5228 5229 5230 5230 5230 5229 5229 5228 5227 5226 5224 5223 5221 5219 5217 5214 5211 5209 5205 5202 5198 5193 5188 5184 5180 5176 5172 5168 5164 5161 5157 5154 5152 5150 5147 5145 5143 5141 5139 5137 5135 5133 5132 5130 5128 5127 5126 5125 5124 5123 5123 5122 5123 5124 5125 5126 5127 5127 5128 5129 5131 5134 5137 5141 5145 5151 5157 5163 5170 5175 5180 5184 5188 5192 5196 5201 5207 5213 5219 5225 5232 5239
5221 5222 5223 5224 5225 5225 5225 5225 5224 5224 5223 5222 5220 5219 5217 5215 5213 5211 5209 5206 5203 5199 5196 5191 5187 5183 5179 5175 5171 5167 5164 5160 5157 5154 5151 5148 5146 5144 5142 5140 5138 5136 5135 5133 5131 5130 5128 5126 5125 5124 5123 5122 5121 5121 5120 5121 5122 5123 5124 5125 5126 5127 5128 5129 5132 5135 5140 5145 5151 5157 5163 5168 5173 5177 5181 5185 5189 5193 5199 5204 5210 5216 5222 5228 5235
5217 5218 5219 5220 5220 5220 5220 5220 5219 5218 5217 5216 5214 5213 5211 5210 5208 5206 5203 5200 5197 5194 5190 5186 5181 5177 5173 5169 5166 5162 5159 5156 5153 5150 5147 5145 5143 5141 5139 5137 5135 5134 5132 5130 5129 5127 5126 5124 5123 5122 5121 5121 5120 5119 5118 5118 5119 5120 5122 5123 5124 5125 5126 5128 5131 5135 5139 5144 5150 5155 5161 5166 5170 5174 5178 5182 5186 5191 5196 5202 5207 5213 5219 5224 5230
5214 5214 5215 5215 5216 5216 5215 5215 5214 5213 5212 5210 5209 5208 5206 5204 5203 5200 5198 5194 5191 5187 5184 5180 5176 5172 5168 5165 5161 5157 5154 5152 5149 5146 5144 5142 5140 5138 5136 5135 5133 5131 5129 5128 5126 5125 5124 5123 5122 5120 5119 5119 5118 5117 5117 5116 5117 5118 5119 5121 5122 5123 5125 5127 5130 5133 5138 5142 5148 5153 5158 5162 5166 5170 5175 5179 5183 5188 5194 5199 5204 5210 5215 5220 5226